EW1541 Weather Reports


time (UTC)temp
F
wind
direction
speed
knots
gust
knots
rain 1hr
in
rain 24hr
in
rain mn
in
humidity
%
barometer
mb
20260508030100 0 319 0.0 1.7 0.00 0.00 0.00 1016.1
20260508024603 0 319 0.0 3.5 0.00 0.00 0.00 1016.2
20260508023050 0 319 0.0 1.7 0.00 0.00 0.00 1016.3
20260508021546 0 319 0.0 4.3 0.00 0.00 0.00 1016.3
20260508020042 0 319 0.0 3.5 0.00 0.00 0.00 1016.4
20260508014538 0 319 2.6 5.2 0.00 0.00 0.00 1016.4
20260508013036 0 319 0.0 3.5 0.00 0.00 0.00 1016.5
20260508011530 0 319 1.7 5.2 0.00 0.00 0.00 1016.5
20260508010027 0 319 0.0 4.3 0.00 0.00 0.00 1016.6
20260508004520 0 319 0.9 3.5 0.00 0.00 0.00 1016.7
20260508003016 0 319 0.0 4.3 0.00 0.00 0.00 1016.9
20260508001511 0 319 2.6 5.2 0.00 0.00 0.00 1016.8
20260508000008 0 319 0.0 3.5 0.00 0.00 0.00 1016.9
20260507234505 0 319 0.9 3.5 0.00 0.00 0.00 1016.9
20260507233059 0 319 0.0 1.7 0.00 0.00 0.00 1016.9
20260507231558 0 319 1.7 4.3 0.00 0.00 0.00 1016.9
20260507230050 0 319 0.9 4.3 0.00 0.00 0.00 1017.0
20260507224548 0 319 0.0 3.5 0.00 0.00 0.00 1017.1
20260507223041 0 319 0.0 3.5 0.00 0.00 0.00 1017.1
20260507221537 0 319 0.0 1.7 0.00 0.00 0.00 1017.3
20260507220033 0 319 0.0 5.2 0.00 0.00 0.00 1017.3
20260507214530 0 319 3.5 5.2 0.00 0.00 0.00 1017.4
20260507213025 0 319 0.0 4.3 0.00 0.00 0.00 1017.2
20260507211521 0 319 0.0 3.5 0.00 0.00 0.00 1017.2
20260507210017 0 319 0.0 5.2 0.00 0.00 0.00 1017.2
20260507204513 0 319 0.0 3.5 0.00 0.00 0.00 1017.3
20260507203011 0 319 0.0 1.7 0.00 0.00 0.00 1017.3
20260507201503 0 319 0.0 1.7 0.00 0.00 0.00 1017.1
20260507200107 0 319 0.0 5.2 0.00 0.00 0.00 1017.1
20260507194555 0 322 0.0 4.3 0.00 0.00 0.00 1017.1
20260507193053 0 322 2.6 4.3 0.00 0.00 0.00 1017.1
20260507191546 0 322 2.6 4.3 0.00 0.00 0.00 1016.9
20260507190046 0 322 1.7 6.1 0.00 0.00 0.00 1016.9
20260507184545 0 323 1.7 7.0 0.00 0.00 0.00 1017.0
20260507183046 0 320 2.6 7.0 0.00 0.00 0.00 1016.9
20260507181544 0 319 3.5 7.0 0.00 0.00 0.00 1016.9
20260507180047 0 319 2.6 5.2 0.00 0.00 0.00 1016.9
20260507174550 0 320 4.3 7.0 0.00 0.00 0.00 1016.9
20260507173046 0 321 4.3 7.8 0.00 0.00 0.00 1016.8
20260507171555 0 286 3.5 8.7 0.00 0.00 0.00 1016.8
20260507170044 0 329 5.2 7.0 0.00 0.00 0.00 1016.9
20260507164541 0 342 5.2 10.4 0.00 0.00 0.00 1016.9
20260507163040 0 342 5.2 8.7 0.00 0.00 0.00 1016.8
20260507161539 0 355 5.2 8.7 0.00 0.00 0.00 1016.8
20260507160044 0 329 5.2 7.8 0.00 0.00 0.00 1016.9
20260507154538 0 325 6.1 7.8 0.00 0.00 0.00 1016.9
20260507153032 0 325 5.2 7.0 0.00 0.00 0.00 1017.0
20260507151528 0 327 5.2 7.0 0.00 0.00 0.00 1017.0
20260507150124 0 326 6.1 7.8 0.00 0.00 0.00 1016.9
20260507144519 0 325 5.2 8.7 0.00 0.00 0.00 1017.0
20260507143015 0 329 5.2 8.7 0.00 0.00 0.00 1017.1
20260507141510 0 330 5.2 7.8 0.00 0.00 0.00 1017.2
20260507140007 0 331 6.1 9.6 0.00 0.00 0.00 1017.1
20260507134502 0 336 6.1 9.6 0.00 0.00 0.00 1017.1
20260507133058 0 360 4.3 8.7 0.00 0.00 0.00 1017.2
20260507131552 0 338 5.2 9.6 0.00 0.00 0.00 1017.1
20260507130048 0 355 6.1 12.2 0.00 0.00 0.00 1017.2
20260507124544 0 360 4.3 10.4 0.00 0.00 0.00 1017.2
20260507123040 0 349 7.0 10.4 0.00 0.00 0.00 1017.2
20260507121534 0 348 7.8 10.4 0.00 0.00 0.00 1017.1
20260507120030 0 344 7.8 10.4 0.00 0.00 0.00 1017.1
20260507114525 0 344 6.1 11.3 0.00 0.00 0.00 1017.1
20260507113023 0 343 7.8 13.0 0.00 0.00 0.00 1017.1
20260507111525 0 175 3.5 7.0 0.00 0.00 0.00 1017.1
20260507110013 0 344 4.3 11.3 0.00 0.00 0.00 1016.9
20260507104510 0 188 0.9 5.2 0.00 0.00 0.00 1016.8
20260507103004 0 187 1.7 8.7 0.00 0.00 0.00 1016.7
20260507101600 0 190 7.8 13.0 0.00 0.00 0.00 1016.6
20260507100055 0 185 7.0 10.4 0.00 0.00 0.00 1016.5
20260507094551 0 181 7.0 10.4 0.00 0.00 0.00 1016.5
20260507093048 0 203 1.7 8.7 0.00 0.00 0.00 1016.5
20260507091543 0 175 4.3 9.6 0.00 0.00 0.00 1016.4
20260507090038 0 173 5.2 8.7 0.00 0.00 0.00 1016.4
20260507084537 0 182 6.1 11.3 0.00 0.00 0.00 1016.3
20260507083029 0 188 3.5 9.6 0.00 0.00 0.00 1016.1
20260507081526 0 184 4.3 11.3 0.00 0.00 0.00 1015.9
20260507080019 0 176 6.1 9.6 0.00 0.00 0.00 1015.8
20260507074515 0 175 4.3 11.3 0.00 0.00 0.00 1015.7
20260507073011 0 178 5.2 7.8 0.00 0.00 0.00 1015.7
20260507071507 0 157 0.0 5.2 0.00 0.00 0.00 1015.6
20260507070003 0 157 0.9 6.1 0.00 0.00 0.00 1015.5
20260507064558 0 150 3.5 6.1 0.00 0.00 0.00 1015.4
20260507063054 0 149 2.6 6.1 0.00 0.00 0.00 1015.4
20260507061549 0 119 3.5 5.2 0.00 0.00 0.00 1015.3
20260507060056 0 116 0.0 4.3 0.00 0.00 0.00 1015.2
20260507054547 0 116 1.7 5.2 0.00 0.00 0.00 1015.3
20260507053038 0 116 3.5 5.2 0.00 0.00 0.00 1015.1
20260507051531 0 116 4.3 6.1 0.00 0.00 0.00 1015.0
20260507050026 0 90 5.2 7.0 0.00 0.00 0.00 1014.9
20260507044543 0 335 3.5 8.7 0.00 0.00 0.00 1014.7
20260507043018 0 355 5.2 9.6 0.00 0.00 0.00 1014.6
20260507041513 0 330 4.3 7.8 0.00 0.00 0.00 1014.6
20260507040009 0 171 0.0 0.0 0.00 0.00 0.00 1014.4
20260507034505 0 171 0.9 7.8 0.00 0.00 0.00 1014.1
20260507033001 0 169 0.0 7.0 0.00 0.00 0.00 1014.1
20260507031556 0 169 1.7 4.3 0.00 0.00 0.00 1014.0